Find Siwei Gaojing 2-04

NORAD ID: 62080 Int'l Des: 2024-218 Owner: SIWEI Country: CN operational
LEOCIRCULARRETROGRADESSO

現在のビュー

3D地球を読み込み中...

Siwei Gaojing 2-04について

説明を読み込み中...

次回通過

Passes for default location (London). Set your location on the main map for personalized predictions.

高度履歴

Loading altitude history...

軌道要素

1 62080U 24218C 26151.45905766 .00000382 00000-0 21033-4 0 9996
2 62080 97.4396 159.0334 0001297 112.9486 247.1885 15.19715959 83908
Epoch: May 31, 2026 • Age: 8 hours

現在のステータス

高度 521.3 km
速度 7.60 km/s
衛星直下点 -36.26°S, 5.84°W
打ち上げ日 Nov 24, 2024
運用期間 1.5 years
タイプ other

技術仕様

分類 Payload
質量 600.00 kg
乾燥質量 500.00 kg
総質量 600.00 kg
長さ 0.50 m
直径 0.50 m
スパン 0.50 m
形状 Box
製造者 DFHZ
バスタイプ Siwei
フェーズステータス In Orbit
所有者/国 SIWEI/CN

Most Searched